Time,TemperatureF,DewpointF,PressureIn,WindDirection,WindDirectionDegrees,WindSpeedMPH,WindSpeedGustMPH,Humidity,HourlyPrecipIn,Conditions,Clouds,dailyrainin,SoftwareType,DateUTC
2013-01-31 00:17:00,14.7,7.6,29.93,West,270,0.0,0.0,73,0.00,,,0.00,open2300-1.11,2013-01-31 06:17:00,
2013-01-31 01:17:00,15.6,8.7,29.93,West,270,0.0,0.0,74,0.00,,,0.00,open2300-1.11,2013-01-31 07:17:00,
2013-01-31 02:17:00,16.3,9.4,29.95,WNW,292,1.3,4.2,74,0.00,,,0.00,open2300-1.11,2013-01-31 08:17:00,
2013-01-31 03:17:00,15.6,7.5,29.95,WNW,292,1.8,6.7,70,0.00,,,0.00,open2300-1.11,2013-01-31 09:17:00,
2013-01-31 04:17:00,13.3,4.7,29.98,WNW,292,7.8,8.1,68,0.00,,,0.00,open2300-1.11,2013-01-31 10:17:00,
2013-01-31 05:17:00,11.1,1.9,30.00,WNW,292,8.5,8.5,66,0.00,,,0.00,open2300-1.11,2013-01-31 11:17:00,
2013-01-31 06:17:00,10.2,1.3,30.02,West,270,5.1,8.5,67,0.00,,,0.00,open2300-1.11,2013-01-31 12:17:00,
2013-01-31 07:17:00,10.6,2.0,30.06,NW,315,5.1,8.5,68,0.00,,,0.00,open2300-1.11,2013-01-31 13:17:00,
2013-01-31 08:17:00,11.1,1.9,30.08,WNW,292,8.9,13.6,66,0.00,,,0.00,open2300-1.11,2013-01-31 14:17:00,
2013-01-31 09:17:00,12.0,1.7,30.13,WNW,292,6.5,13.9,63,0.00,,,0.00,open2300-1.11,2013-01-31 15:17:00,
2013-01-31 10:17:00,11.1,-0.5,30.18,NW,315,8.9,15.0,59,0.00,,,0.00,open2300-1.11,2013-01-31 16:17:00,
2013-01-31 11:17:00,10.9,-1.8,30.23,North,0,8.9,20.6,56,0.00,,,0.00,open2300-1.11,2013-01-31 17:17:00,
2013-01-31 12:17:00,12.0,-2.3,30.25,WNW,292,6.5,15.4,52,0.00,,,0.00,open2300-1.11,2013-01-31 18:17:00,
2013-01-31 13:17:00,13.5,-0.2,30.25,WNW,292,13.0,13.0,54,0.00,,,0.00,open2300-1.11,2013-01-31 19:17:00,
2013-01-31 14:17:00,13.5,-1.4,30.26,NW,315,4.9,18.1,51,0.00,,,0.00,open2300-1.11,2013-01-31 20:17:00,
2013-01-31 15:17:00,15.6,-0.2,30.28,WNW,292,9.8,16.5,49,0.00,,,0.00,open2300-1.11,2013-01-31 21:17:00,
2013-01-31 16:17:00,14.4,-1.9,30.30,WNW,292,6.5,12.5,48,0.00,,,0.00,open2300-1.11,2013-01-31 22:17:00,
2013-01-31 17:17:00,12.4,-2.8,30.30,NW,315,5.6,13.2,50,0.00,,,0.00,open2300-1.11,2013-01-31 23:17:00,
2013-01-31 18:17:00,9.1,-4.7,30.32,WNW,292,6.0,9.4,53,0.00,,,0.00,open2300-1.11,2013-02-01 00:17:00,
2013-01-31 19:17:00,7.5,-5.4,30.33,NW,315,0.0,7.2,55,0.00,,,0.00,open2300-1.11,2013-02-01 01:17:00,
2013-01-31 20:17:00,6.6,-5.5,30.35,NW,315,0.0,5.4,57,0.00,,,0.00,open2300-1.11,2013-02-01 02:17:00,
2013-01-31 21:17:00,5.5,-6.2,30.35,NNE,22,3.4,6.0,58,0.00,,,0.00,open2300-1.11,2013-02-01 03:17:00,
2013-01-31 22:17:00,4.6,-7.0,30.38,SW,225,2.9,6.0,58,0.00,,,0.00,open2300-1.11,2013-02-01 04:17:00,
2013-01-31 23:17:00,3.0,-8.2,30.38,West,270,0.0,2.9,59,0.00,,,0.00,open2300-1.11,2013-02-01 05:17:00,